This is the latest recevied weather packets stored in our database for station/object HK6REC-22. If no packets are shown the sender has not sent any weather packets the latest 10 day(s).
| Time | Temp. | Humidity | Pressure | Rain* | Wind** | Luminosity | Snow |
|---|---|---|---|---|---|---|---|
| 1777934041 | 21.67° C | 88% | 1012 hPa | 0 mm | - | - | - |
| 1777932240 | 22.22° C | 82% | 1012 hPa | 0 mm | - | - | - |
| 1777930439 | 22.22° C | 85% | 1010 hPa | 0 mm | - | - | - |
| 1777928638 | 22.78° C | 79% | 1010 hPa | 0 mm | - | - | - |
| 1777926837 | 23.33° C | 80% | 1009 hPa | 0 mm | - | - | - |
| 1777925036 | 23.33° C | 82% | 1010 hPa | 0 mm | - | - | - |
| 1777923235 | 23.33° C | 79% | 1009 hPa | 0 mm | - | - | - |
| 1777921434 | 23.33° C | 81% | 1010 hPa | 0 mm | - | - | - |
| 1777919633 | 23.33° C | 76% | 1010 hPa | 0 mm | - | - | - |
| 1777917832 | 23.33° C | 76% | 1011 hPa | 0 mm | - | - | - |
| 1777916031 | 27.22° C | 76% | 1012 hPa | 0 mm | - | - | - |
| 1777914230 | 26.11° C | 82% | 1013 hPa | 0 mm | - | - | - |
| 1777912429 | 26.11° C | 80% | 1013 hPa | 0 mm | - | - | - |
| 1777910628 | 26.11° C | 86% | 1015 hPa | 0 mm | - | - | - |
| 1777908827 | 25° C | 82% | 1014 hPa | 0 mm | - | - | - |
| 1777907026 | 25° C | 90% | 1016 hPa | 0 mm | - | - | - |
| 1777905225 | 22.22° C | 90% | 1015 hPa | 0 mm | - | - | - |
| 1777903424 | 19.44° C | 95% | 1016 hPa | 0 mm | - | - | - |
| 1777901623 | 18.89° C | 94% | 1015 hPa | 0 mm | - | - | - |
| 1777899822 | 19.44° C | 96% | 1016 hPa | 0 mm | - | - | - |
| 1777898021 | 19.44° C | 95% | 1015 hPa | 0 mm | - | - | - |
| 1777896219 | 20° C | 94% | 1015 hPa | 0 mm | - | - | - |
| 1777894418 | 20° C | 93% | 1015 hPa | 0 mm | - | - | - |
| 1777892617 | 15.56° C | 92% | 1016 hPa | 0 mm | - | - | - |
| 1777890816 | 16.11° C | 94% | 1015 hPa | 0 mm | - | - | - |
* Rain latest hour (hover to see other rain measurements)
** Current wind speed in m/s (hover to see current wind gust speed)